[[{"header":{"parameterUnit":"m.s-1","parameterCategory":1,"la1":30.2991,"la2":30.254,"lo1":-89.0895,"lo2":-89.0444,"dy":0.0017,"dx":0.0017,"nx":28,"ny":28,"refTime":"2023-08-26T03:00:00:Z","depth":0,"parameterNumber":2,"parameterNumberName":"U-component_of_WINDS"},"data":[0,0,0,0,0,0,0,0,0,0,0,0,0,0,0,0,0,0,0,0,0,0,0,0,0,0,0,0,0,0,0,0,0,0,0,0,0,0,0,0,0,0,0,0,0,0,0,0,0,0,0,0,0,0,0,0,0,0,-0.6457,-0.6456,0,-0.632,-0.6318,-0.6316,-0.623,-0.6229,-0.6229,-0.6229,-0.6086,-0.6083,-0.608,0,0,0,0,0,0,0,0,0,0,0,0,0,-0.6648,-0.6645,-0.6458,-0.6456,-0.6454,-0.632,-0.6318,-0.6316,-0.623,-0.6229,-0.6229,-0.6228,-0.6087,-0.6083,-0.6079,0,0,0,0,0,0,0,0,0,0,0,0,0,-0.6543,-0.6644,-0.6458,-0.6395,-0.6388,-0.632,-0.6318,-0.6315,-0.623,-0.6229,-0.6229,-0.6228,-0.6089,-0.6084,-0.6079,-0.6062,0,0,-0.6063,-0.6061,0,0,0,0,0,0,0,0,-0.6549,-0.6536,-0.6406,-0.6399,-0.6391,-0.6291,-0.6333,-0.6231,-0.623,-0.629,-0.6229,-0.6228,-0.6155,-0.6144,-0.612,-0.6056,-0.6049,-0.6063,-0.606,-0.6058,-0.6056,0,0,0,0,0,0,0,-0.6557,-0.6542,-0.6403,-0.6404,-0.6395,-0.6374,-0.6359,-0.6313,-0.6228,-0.6285,-0.6278,-0.6263,-0.6151,-0.6125,-0.6116,-0.6047,-0.6063,-0.6059,-0.6056,-0.6054,-0.5965,-0.5966,0,0,0,0,0,0,-0.6574,-0.6548,-0.6407,-0.6399,-0.647,-0.6371,-0.6354,-0.6324,-0.6228,-0.6213,-0.6264,-0.626,-0.6134,-0.6122,-0.6111,-0.6086,-0.6058,-0.6053,-0.605,-0.5964,-0.5965,-0.5966,0,0,0,0,0,0,-0.6578,-0.6562,-0.6413,-0.6472,-0.6451,-0.6369,-0.6336,-0.6322,-0.6296,-0.6213,-0.6197,-0.6253,-0.6133,-0.6118,-0.6076,-0.608,-0.6051,-0.6046,-0.5964,-0.5965,-0.5965,-0.6037,0,0,0,0,0,0,-0.6584,-0.6564,-0.6556,-0.6472,-0.6448,-0.638,-0.6336,-0.632,-0.6288,-0.6281,-0.6198,-0.6184,-0.6131,-0.6084,-0.6071,-0.6073,-0.6042,-0.5963,-0.5964,-0.5965,-0.6034,-0.6041,-0.6046,0,0,0,0,0,-0.6591,-0.6581,-0.6556,-0.654,-0.6437,-0.638,-0.6367,-0.6306,-0.6288,-0.628,-0.6227,-0.6187,-0.6082,-0.608,-0.6065,-0.6065,-0.5962,-0.5964,-0.5965,-0.6031,-0.6039,-0.6046,0,0,0,0,0,0,-0.6667,-0.6569,-0.654,-0.6503,-0.6451,-0.6366,-0.6354,-0.6316,-0.6267,-0.6263,-0.619,-0.6172,-0.6138,-0.6097,-0.6096,-0.6046,-0.6018,-0.6016,-0.6073,-0.608,-0.6086,-0.6096,-0.6038,0,0,0,0,0,-0.668,-0.6642,-0.6558,-0.6533,-0.6509,-0.6436,-0.6409,-0.6368,-0.631,-0.6287,-0.6231,-0.6177,-0.6132,-0.6104,-0.6058,-0.6028,-0.601,-0.6021,-0.6028,-0.6033,-0.6032,-0.6016,-0.6021,-0.5971,-0.5971,-0.5971,0,0,-0.6705,-0.6647,-0.6627,-0.6547,-0.6502,-0.6465,-0.6418,-0.638,-0.6352,-0.6281,-0.6238,-0.6196,-0.6131,-0.6096,-0.6077,-0.6061,-0.6042,-0.6035,-0.604,-0.6036,-0.6018,-0.6023,-0.6027,-0.5972,-0.5971,-0.5971,0,0,-0.6732,-0.6684,-0.6659,-0.6615,-0.6548,-0.65,-0.6494,-0.6415,-0.6385,-0.6341,-0.6288,-0.6254,-0.6177,-0.6134,-0.6102,-0.6116,-0.6078,-0.6103,-0.6135,-0.6119,-0.6123,-0.6126,-0.6133,-0.6136,-0.6103,-0.6103,-0.6103,0,-0.6772,-0.6714,-0.6651,-0.6617,-0.6584,-0.652,-0.6495,-0.6455,-0.6376,-0.6355,-0.6338,-0.6243,-0.6194,-0.6149,-0.6153,-0.6129,-0.6121,-0.6112,-0.6128,-0.613,-0.6132,-0.6138,-0.614,-0.6107,-0.6107,-0.6106,-0.6106,0,-0.6767,-0.6728,-0.6716,-0.6642,-0.6608,-0.6579,-0.6512,-0.6485,-0.6448,-0.6402,-0.636,-0.63,-0.6242,-0.6228,-0.619,-0.6178,-0.617,-0.6142,-0.6112,-0.6142,-0.6146,-0.6147,-0.6112,-0.6111,-0.611,-0.6109,0,0,-0.6836,-0.673,-0.6727,-0.6694,-0.6616,-0.6585,-0.6553,-0.6497,-0.6476,-0.6425,-0.6397,-0.6336,-0.631,-0.6274,-0.6231,-0.6218,-0.6235,-0.6191,-0.6188,-0.6202,-0.622,-0.6242,-0.6246,-0.6209,-0.621,-0.621,-0.6226,0,-0.6852,-0.6793,-0.6737,-0.6697,-0.6661,-0.6602,-0.6575,-0.6525,-0.6482,-0.6446,-0.6398,-0.6356,-0.6325,-0.6303,-0.6287,-0.6236,-0.6238,-0.6234,-0.6184,-0.6183,-0.6202,-0.6247,-0.627,-0.6288,-0.6227,-0.6227,-0.6227,0,-0.6862,-0.6815,-0.6773,-0.6701,-0.6684,-0.666,-0.6606,-0.6571,-0.6514,-0.6484,-0.6446,-0.6401,-0.6366,-0.6342,-0.6293,-0.6293,-0.6269,-0.6241,-0.6241,-0.6233,-0.6207,-0.6242,-0.6292,-0.6295,-0.6229,-0.6229,-0.6228,0,-0.6919,-0.6844,-0.681,-0.6783,-0.6698,-0.6683,-0.6647,-0.6589,-0.656,-0.6513,-0.6493,-0.6442,-0.6415,-0.6377,-0.632,-0.6307,-0.6279,-0.6248,-0.6253,-0.6255,-0.6249,-0.6251,-0.6297,-0.6234,-0.6234,-0.6234,-0.6234,0,-0.6943,-0.692,-0.6834,-0.6813,-0.6786,-0.6722,-0.6697,-0.6656,-0.6606,-0.6576,-0.6521,-0.6495,-0.6422,-0.6387,-0.6342,-0.631,-0.6298,-0.6273,-0.6262,-0.6278,-0.6282,-0.6262,-0.6259,-0.6235,-0.6235,-0.6235,-0.6235,0,-0.7,-0.6942,-0.6901,-0.6825,-0.6805,-0.6789,-0.6723,-0.6701,-0.6657,-0.662,-0.6608,-0.6538,-0.6495,-0.6435,-0.6372,-0.6343,-0.6317,-0.6298,-0.6337,-0.633,-0.6339,-0.6339,-0.6374,-0.6376,-0.6312,-0.6313,-0.6314,0,-0.702,-0.7,-0.6923,-0.69,-0.6866,-0.6828,-0.6799,-0.6736,-0.6708,-0.6643,-0.663,-0.6582,-0.6541,-0.6474,-0.6418,-0.6371,-0.6351,-0.6367,-0.6343,-0.6361,-0.6352,-0.6354,-0.6353,-0.6372,-0.6373,-0.6374,-0.6375,0,-0.706,-0.7033,-0.6992,-0.6943,-0.691,-0.6867,-0.6822,-0.6807,-0.6735,-0.6706,-0.6662,-0.663,-0.6568,-0.6522,-0.6467,-0.6431,-0.6391,-0.6383,-0.6382,-0.6398,-0.6421,-0.641,-0.6353,-0.6382,-0.6381,-0.6381,-0.638,-0.638,-0.7099,-0.708,-0.7024,-0.6981,-0.6941,-0.6902,-0.6878,-0.6831,-0.6793,-0.6738,-0.6703,-0.6661,-0.6606,-0.653,-0.6495,-0.6462,-0.6446,-0.6444,-0.6443,-0.6444,-0.645,-0.6427,-0.6452,-0.6451,-0.6451,-0.6451,-0.6451,0,-0.7138,-0.7099,-0.7061,-0.7001,-0.6968,-0.6935,-0.6884,-0.6859,-0.6822,-0.6775,-0.6736,-0.6687,-0.6643,-0.6584,-0.6536,-0.6521,-0.6502,-0.651,-0.6511,-0.6503,-0.6466,-0.6473,-0.6527,-0.6527,-0.6527,-0.6527,-0.6527,-0.6527,-0.7154,-0.7121,-0.7088,-0.7035,-0.6996,-0.6955,-0.6929,-0.6893,-0.6855,-0.6802,-0.6765,-0.6728,-0.6677,-0.6625,-0.6584,-0.6568,-0.6553,-0.6567,-0.6546,-0.6513,-0.6506,-0.6499,-0.6505,-0.6565,-0.6565,-0.6586,-0.6586,-0.6586]},{"header":{"parameterUnit":"m.s-1","parameterCategory":1,"la1":30.2991,"la2":30.254,"lo1":-89.0895,"lo2":-89.0444,"dy":0.0017,"dx":0.0017,"nx":28,"ny":28,"refTime":"2023-08-26T03:00:00:Z","depth":0,"parameterNumber":3,"parameterNumberName":"V-component_of_WINDS"},"data":[0,0,0,0,0,0,0,0,0,0,0,0,0,0,0,0,0,0,0,0,0,0,0,0,0,0,0,0,0,0,0,0,0,0,0,0,0,0,0,0,0,0,0,0,0,0,0,0,0,0,0,0,0,0,0,0,0,0,3.1098,3.1098,0,3.1094,3.1094,3.1093,3.1159,3.116,3.1162,3.1164,3.1152,3.1151,3.1149,0,0,0,0,0,0,0,0,0,0,0,0,0,3.1155,3.1154,3.1098,3.1098,3.1097,3.1094,3.1094,3.1093,3.1158,3.1161,3.1163,3.1165,3.1153,3.1151,3.1148,0,0,0,0,0,0,0,0,0,0,0,0,0,3.1138,3.1154,3.1098,3.113,3.1132,3.1094,3.1094,3.1093,3.1158,3.1161,3.1163,3.1166,3.1154,3.1151,3.1148,3.1076,0,0,3.1139,3.1138,0,0,0,0,0,0,0,0,3.1139,3.1136,3.1125,3.1127,3.113,3.113,3.111,3.1087,3.1157,3.1148,3.1164,3.1167,3.1142,3.114,3.1133,3.1076,3.1075,3.1139,3.1137,3.1136,3.1135,0,0,0,0,0,0,0,3.114,3.1137,3.1096,3.1125,3.1128,3.1142,3.1143,3.1106,3.113,3.1149,3.1154,3.1153,3.1144,3.1136,3.1134,3.1075,3.1139,3.1136,3.1134,3.1133,3.0957,3.0955,0,0,0,0,0,0,3.1138,3.1137,3.1096,3.1096,3.1142,3.1139,3.114,3.1127,3.113,3.1134,3.1151,3.1156,3.114,3.1137,3.1133,3.1049,3.1136,3.1133,3.1131,3.096,3.0957,3.0954,0,0,0,0,0,0,3.1139,3.1134,3.1096,3.1118,3.1114,3.1135,3.112,3.1125,3.1118,3.1132,3.1136,3.1138,3.1142,3.1138,3.109,3.1049,3.1132,3.1129,3.0964,3.0959,3.0955,3.0879,0,0,0,0,0,0,3.1141,3.1134,3.1108,3.1117,3.1113,3.1054,3.1118,3.1123,3.1113,3.112,3.1121,3.1124,3.1144,3.1094,3.1087,3.1047,3.1127,3.0967,3.0962,3.0957,3.0885,3.0873,3.0862,0,0,0,0,0,3.1142,3.1085,3.1106,3.1101,3.1081,3.1052,3.1049,3.1075,3.111,3.1083,3.1092,3.1124,3.1056,3.1089,3.1082,3.1039,3.097,3.0963,3.0957,3.089,3.0875,3.0862,0,0,0,0,0,0,3.1068,3.1087,3.111,3.1055,3.1052,3.1063,3.103,3.1058,3.1043,3.105,3.1081,3.1081,3.1028,3.1029,3.1066,3.097,3.1019,3.101,3.097,3.0956,3.0944,3.0944,3.1124,0,0,0,0,0,3.1046,3.1022,3.1039,3.0988,3.0986,3.1008,3.0996,3.1017,3.1014,3.1012,3.1018,3.1012,3.0989,3.0973,3.0953,3.0887,3.0887,3.0854,3.0842,3.0833,3.0824,3.0788,3.0774,3.0932,3.0932,3.0932,0,0,3.0998,3.1005,3.0988,3.0974,3.0974,3.0947,3.1006,3.0976,3.0955,3.1007,3.0963,3.0967,3.0962,3.0905,3.088,3.0904,3.0781,3.0824,3.0817,3.0813,3.078,3.0765,3.0752,3.0928,3.0929,3.0929,0,0,3.0897,3.0901,3.0859,3.0859,3.0859,3.0875,3.0864,3.0872,3.0878,3.0835,3.0873,3.0849,3.0809,3.0804,3.0796,3.0695,3.0723,3.0688,3.0625,3.059,3.0577,3.0566,3.0529,3.0515,3.068,3.068,3.068,0,3.0836,3.08,3.0833,3.08,3.0792,3.0841,3.0797,3.0795,3.0787,3.0779,3.0808,3.076,3.076,3.0702,3.0677,3.067,3.0658,3.0686,3.0577,3.0566,3.0557,3.0521,3.0507,3.0675,3.0676,3.0676,3.0677,0,3.0725,3.0699,3.0665,3.0659,3.0648,3.0609,3.0635,3.0619,3.0641,3.0653,3.0608,3.0611,3.0592,3.058,3.06,3.0525,3.054,3.0572,3.0621,3.0536,3.0503,3.049,3.0669,3.067,3.0672,3.0673,0,0,3.0574,3.059,3.0576,3.0574,3.0579,3.0559,3.0522,3.0507,3.0491,3.0485,3.0454,3.0421,3.0451,3.0442,3.0463,3.0432,3.035,3.0468,3.0469,3.0444,3.0265,3.0239,3.0223,3.0371,3.0368,3.0366,3.0265,0,3.0475,3.0416,3.0445,3.0381,3.0357,3.0404,3.0372,3.0371,3.0381,3.0361,3.0372,3.0347,3.039,3.0385,3.0357,3.0366,3.0314,3.0374,3.0339,3.0337,3.0336,3.0206,3.0178,3.0082,3.0253,3.025,3.0249,0,3.035,3.0342,3.0276,3.0286,3.0277,3.0248,3.0236,3.0217,3.0216,3.0226,3.0217,3.0245,3.0208,3.0259,3.0207,3.0248,3.0235,3.0238,3.0235,3.023,3.0286,3.0196,3.0053,3.0037,3.0229,3.0231,3.0232,0,3.0245,3.0217,3.0174,3.0171,3.0182,3.016,3.0163,3.0166,3.0154,3.0143,3.0136,3.012,3.0111,3.0097,3.0119,3.0154,3.0064,3.0117,3.0068,3.0068,3.0045,3.0045,2.9895,3.0041,3.0041,3.0041,3.0041,0,3.0129,3.0087,3.0127,3.01,3.0053,3.0087,3.004,3.0048,3.0049,3.0024,3.0063,3.0038,3.007,3.0047,3.0064,3.0018,3.0013,3.0019,3.0023,3.0014,3.0013,3.0004,3.001,3.0037,3.0038,3.0039,3.004,0,3.0002,3.0027,2.9983,2.9999,3.0002,2.9966,2.9978,2.9953,2.9968,2.9935,2.9929,2.995,2.9926,2.9948,2.9923,2.9934,2.9873,2.9888,2.9873,2.9877,2.9826,2.983,2.9664,2.9643,2.9803,2.9802,2.98,0,2.9925,2.9894,2.9907,2.9894,2.9895,2.9873,2.9863,2.9896,2.9883,2.988,2.9855,2.9834,2.9819,2.9777,2.9789,2.977,2.9784,2.9727,2.9781,2.9772,2.978,2.9781,2.9777,2.9715,2.9713,2.9711,2.971,0,2.9786,2.9801,2.9786,2.9775,2.9762,2.9754,2.9749,2.9736,2.9769,2.9752,2.9729,2.9718,2.9694,2.9672,2.9658,2.9659,2.9688,2.9694,2.9681,2.967,2.9662,2.9664,2.9841,2.9696,2.9698,2.9699,2.9699,2.97,2.968,2.9655,2.966,2.9642,2.9643,2.9637,2.9615,2.9628,2.961,2.9595,2.9615,2.9585,2.9585,2.957,2.9567,2.9543,2.9567,2.9549,2.9544,2.9539,2.9531,2.9668,2.9541,2.9542,2.9542,2.9542,2.9543,0,2.9542,2.9548,2.9532,2.9525,2.951,2.9544,2.954,2.9525,2.95,2.9498,2.9484,2.9456,2.9436,2.9447,2.9429,2.9408,2.9421,2.9401,2.9402,2.9401,2.9512,2.9523,2.9391,2.9391,2.9391,2.9391,2.9391,2.9391,2.9468,2.9426,2.9442,2.94,2.9407,2.938,2.9375,2.937,2.937,2.9338,2.9322,2.9331,2.9335,2.9317,2.9299,2.9303,2.9293,2.9269,2.9277,2.9379,2.9394,2.9408,2.9419,2.9267,2.9267,2.9169,2.9168,2.9167]}]]